White Plains, CT

2:50 AM EST on February 21, 2018 (GMT -0500)
Westchester County

Weather History for KHPN - November, 2011

Change the Weather History Date:

Thursday, November 24, 2011

  Actual Average Record
Temperature  
Mean Temperature 42 °F -  
Max Temperature 51 °F 47 °F 66 °F (1979)
Min Temperature 33 °F 33 °F 18 °F (1989)
Degree Days  
Heating Degree Days 23    
Moisture  
Dew Point 32 °F    
Average Humidity 68    
Maximum Humidity 82    
Minimum Humidity 52    
Precipitation  
Precipitation 0.00 in - - ()
Sea Level Pressure  
Sea Level Pressure 30.13 in    
Wind  
Wind Speed 8 mph (WNW)    
Max Wind Speed 13 mph    
Max Gust Speed -    
Visibility 10 miles    
Events      
Averages and records for this station are not official NWS values.
T = Trace of Precipitation, MM = Missing Value Source: NWS Daily Summary

Daily Weather History Graph

Daily Weather History Graph

Search for Another Location

Airport or City:

Trip Planner

Search our weather history database for the weather conditions in past years. The results will help you decide how hot, cold, wet, or windy it might be!

Date:

Astronomy

Nov. 24, 2011 Rise Set
Actual Time 6:52 AM EST 4:30 PM EST
Civil Twilight 6:22 AM EST 5:00 PM EST
Nautical Twilight 5:48 AM EST 5:33 PM EST
Astronomical Twilight 5:15 AM EST 6:06 PM EST
Moon 6:07 AM EST (11/24) 3:58 PM EST (11/24)
Length of Visible Light 10h 37m
Length of Day
9h 37m
Waning Crescent, 0% of the Moon is Illuminated
Nov 24
Waning Crescent
Nov 25
New
Dec 2
First Quarter
Dec 10
Full
Dec 17
Last Quarter

Hourly Weather History & Observations

Time (EST) Temp. Windchill Dew Point Humidity Pressure Visibility Wind Dir Wind Speed Gust Speed Precip Events Conditions
12:56 AM 39.0 °F 31.4 °F 30.9 °F 73% 30.02 in 10.0 mi North 12.7 mph - N/A   Mostly Cloudy
1:56 AM 37.9 °F 30.0 °F 30.9 °F 76% 30.04 in 10.0 mi NNW 12.7 mph - N/A   Mostly Cloudy
2:56 AM 36.0 °F 29.0 °F 30.0 °F 79% 30.06 in 10.0 mi NNW 9.2 mph - N/A   Scattered Clouds
3:56 AM 35.1 °F 27.4 °F 30.0 °F 82% 30.09 in 10.0 mi NW 10.4 mph - N/A   Partly Cloudy
4:56 AM 35.1 °F 27.9 °F 30.0 °F 82% 30.11 in 10.0 mi NW 9.2 mph - N/A   Clear
5:56 AM 35.6 °F 27.5 °F 30.2 °F 81% 30.10 in 10.0 mi NW 11.5 mph - N/A   Clear
6:56 AM 33.8 °F 25.3 °F 28.4 °F 81% 30.13 in 10.0 mi North 11.5 mph - N/A   Clear
7:56 AM 36.0 °F 32.1 °F 30.0 °F 79% 30.16 in 10.0 mi NNW 4.6 mph - N/A   Clear
8:56 AM 39.0 °F 31.8 °F 30.9 °F 73% 30.16 in 10.0 mi NW 11.5 mph - N/A   Clear
9:56 AM 41.0 °F 37.1 °F 30.0 °F 65% 30.16 in 10.0 mi NW 5.8 mph - N/A   Clear
10:56 AM 42.8 °F 38.0 °F 30.2 °F 61% 30.14 in 10.0 mi West 8.1 mph - N/A   Clear
11:56 AM 45.0 °F - 32.0 °F 60% 30.14 in 10.0 mi Calm Calm - N/A   Clear
12:56 PM 46.9 °F - 32.0 °F 56% 30.14 in 10.0 mi WNW 4.6 mph - N/A   Clear
1:56 PM 51.1 °F - 34.0 °F 52% 30.13 in 10.0 mi West 6.9 mph - N/A   Clear
2:56 PM 51.1 °F - 34.0 °F 52% 30.13 in 10.0 mi West 4.6 mph - N/A   Clear
3:56 PM 50.0 °F - 34.0 °F 54% 30.14 in 10.0 mi Variable 3.5 mph - N/A   Clear
4:56 PM 44.1 °F - 34.0 °F 68% 30.16 in 10.0 mi Calm Calm - N/A   Clear
5:56 PM 44.1 °F - 34.0 °F 68% 30.16 in 10.0 mi Calm Calm - N/A   Clear
6:56 PM 48.0 °F - 34.0 °F 58% 30.17 in 10.0 mi West 4.6 mph - N/A   Clear
7:56 PM 48.0 °F - 34.0 °F 58% 30.16 in 10.0 mi WSW 3.5 mph - N/A   Clear
8:56 PM 43.0 °F 41.3 °F 34.0 °F 71% 30.17 in 10.0 mi NW 3.5 mph - N/A   Clear
9:56 PM 41.0 °F 39.0 °F 35.1 °F 79% 30.17 in 10.0 mi NW 3.5 mph - N/A   Clear
10:56 PM 45.0 °F 42.6 °F 34.0 °F 65% 30.17 in 10.0 mi West 4.6 mph - N/A   Clear
11:56 PM 44.1 °F 42.5 °F 34.0 °F 68% 30.16 in 10.0 mi WSW 3.5 mph - N/A   Clear